Location: Gliwice
(50.3031°N, 18.6747°E)
Time: 17:35:26
(UTC+01:00)

ISS - Visible Passes

Search period start: 16 January 2019 00:00
Search period end: 26 January 2019 00:00
Orbit: 404 x 407 km, 51.6° (Epoch: 17 January)

Date Brightness Start Highest point End Pass type
(mag) Time Alt. Az. Time Alt. Az. Time Alt. Az.
23 Jan -1.8 18:36:37 10° SSW 18:38:06 20° S 18:38:06 20° S visible
24 Jan -1.9 17:45:26 10° S 17:47:39 17° SE 17:48:29 16° ESE visible
24 Jan -0.9 19:20:27 10° WSW 19:21:11 16° WSW 19:21:11 16° WSW visible
25 Jan -3.2 18:28:38 10° SW 18:31:29 44° S 18:31:29 44° S visible
